Stations météo

Publicité
Orleans, France (7249): Température de l'air & dewpoint: 17.04.2019 03:00:00 - 23.04.2019 03:00:00 (CEST)Orleans, France (7249): Température de l'air 5cm: 17.04.2019 03:00:00 - 23.04.2019 03:00:00 (CEST)Orleans, France (7249): Température de l'air -20cm & Température de l'air -100cm: 17.04.2019 03:00:00 - 23.04.2019 03:00:00 (CEST)Orleans, France (7249): Vitesse du vent & gusts: 17.04.2019 03:00:00 - 23.04.2019 03:00:00 (CEST)Orleans, France (7249): Direction du vent: 17.04.2019 03:00:00 - 23.04.2019 03:00:00 (CEST)Orleans, France (7249): reduced air pressure: 17.04.2019 03:00:00 - 23.04.2019 03:00:00 (CEST)Orleans, France (7249): visibility: 17.04.2019 03:00:00 - 23.04.2019 03:00:00 (CEST)Orleans, France (7249): Ensoleillement: 17.04.2019 03:00:00 - 23.04.2019 03:00:00 (CEST)Orleans, France (7249): Quantités de précipitations: 17.04.2019 03:00:00 - 23.04.2019 03:00:00 (CEST)
Date & Time tt [°C] td [°C] tt 5cm [°C] tt -20cm [°C] tt -100cm [°C] ff [km/h] ff [knt] fx [km/h] fx [knt] dd ppp [hPa] vv [km] sd [min] rr [mm]
23.04.2019 03:00:00 12,0 8,1 9,0 13,6 10,5 6 3 8 4 N 997,3 38 0 0,0
23.04.2019 02:00:00 13,7 7,5 10,5 13,6 10,5 4 2 12 6 NE 997,8 55 0 0,0
23.04.2019 01:00:00 13,8 8,4 11,9 13,7 10,4 10 5 14 7 ENE 998,3 50 0 0,0
23.04.2019 00:00:00 14,7 8,9 12,8 13,7 10,5 8 4 13 7 NE 998,7 55 0 0,0
22.04.2019 23:00:00 14,6 8,3 12,1 13,7 10,5 13 7 14 8 ENE 998,9 60 0 0,0
22.04.2019 22:00:00 15,7 6,4 10,5 13,6 10,4 8 4 10 6 ENE 999,6 60 0 0,0
22.04.2019 21:00:00 17,2 7,0 12,6 13,5 10,4 8 4 18 10 E 999,7 60 0 0,0
22.04.2019 20:00:00 20,1 7,5 17,6 13,4 10,4 11 6 21 11 E 999,8 60 32 0,0
22.04.2019 19:00:00 21,8 10,3 21,6 13,3 10,4 16 9 29 16 NE 999,9 52 58 0,0
22.04.2019 18:00:00 22,2 9,4 23,6 13,2 10,4 19 10 30 16 NE 1000,6 54 60 0,0
22.04.2019 17:00:00 21,8 9,0 22,6 13,1 10,4 17 9 27 14 NE 1001,4 38 34 0,0
22.04.2019 16:00:00 20,9 9,8 21,4 13,0 10,4 15 8 24 13 ENE 1002,6 47 25 0,0
22.04.2019 15:00:00 19,7 10,9 18,8 12,9 10,4 16 9 21 11 NE 1003,6 43 0 0,0
22.04.2019 14:00:00 19,5 9,1 19,5 12,8 10,4 13 7 16 9 ENE 1004,5 56 0 0,0
22.04.2019 13:00:00 19,7 11,2 22,1 12,8 10,4 7 4 14 7 NE 1004,9 44 4 0,0
22.04.2019 12:00:00 19,6 10,6 22,5 12,8 10,4 8 4 15 8 ENE 1005,8 20 44 0,0
22.04.2019 11:00:00 18,3 11,6 19,5 12,8 10,4 9 5 13 7 NE 1006,3 20 45 0,0
22.04.2019 10:00:00 16,1 10,8 16,2 12,9 10,4 5 3 9 5 NE 1007,2 34 47 0,0
22.04.2019 09:00:00 13,5 10,3 9,6 13,0 10,4 2 1 9 5 E 1007,8 36 15 0,0
22.04.2019 08:00:00 9,7 8,3 4,8 13,1 10,4 0 0 10 5 N 1008,2 38 0 0,0
22.04.2019 07:00:00 9,1 7,4 4,0 13,2 10,3 0 0 8 4 N 1008,7 39 0 0,0
22.04.2019 06:00:00 10,7 7,8 5,2 13,2 10,4 5 3 12 7 S 1009,2 45 0 0,0
22.04.2019 05:00:00 11,4 8,1 5,7 13,3 10,3 9 5 19 11 SSW 1009,6 55 0 0,0
22.04.2019 04:00:00 12,6 8,1 8,2 13,4 10,4 3 1 13 7 SW 1010,1 57 0 0,0
22.04.2019 03:00:00 13,9 8,7 12,6 13,4 10,3 12 6 20 11 SW 1010,9 60 0 0,0
22.04.2019 02:00:00 14,6 8,8 12,0 13,5 10,3 16 8 29 16 SW 1011,8 59 0 0,0
22.04.2019 01:00:00 15,2 8,4 10,2 13,5 10,3 14 7 20 11 S 1012,1 58 0 0,0
22.04.2019 00:00:00 16,6 8,5 10,0 13,5 10,3 9 5 13 7 SSW 1012,1 60 0 0,0
21.04.2019 23:00:00 15,2 5,7 9,1 13,5 10,3 7 4 11 6 SSE 1012,7 58 0 0,0
21.04.2019 22:00:00 15,6 4,0 9,0 13,5 10,3 9 5 21 12 SE 1012,9 60 0 0,0
21.04.2019 21:00:00 17,8 5,0 12,5 13,4 10,3 7 4 9 5 ENE 1012,8 60 3 0,0
21.04.2019 20:00:00 19,1 7,2 16,6 13,2 10,3 8 4 16 9 ENE 1012,7 60 15 0,0
21.04.2019 19:00:00 21,3 5,2 20,1 13,1 10,3 13 7 24 13 NE 1013,0 60 22 0,0
21.04.2019 18:00:00 23,0 4,5 22,2 13,0 10,3 18 10 28 15 NE 1013,6 51 31 0,0
21.04.2019 17:00:00 22,7 3,2 24,1 12,8 10,3 22 12 31 17 ENE 1014,2 60 51 0,0
21.04.2019 16:00:00 23,5 2,3 24,1 12,7 10,2 18 10 27 15 ENE 1014,6 60 29 0,0
21.04.2019 15:00:00 22,3 8,0 24,3 12,6 10,2 19 10 26 14 NE 1015,5 59 34 0,0
21.04.2019 14:00:00 21,3 8,5 22,4 12,5 10,2 13 7 20 11 NE 1016,1 50 3 0,0
21.04.2019 13:00:00 19,9 8,9 22,2 12,5 10,2 12 7 22 12 NE 1016,9 48 28 0,0
21.04.2019 12:00:00 18,4 8,4 21,7 12,5 10,2 16 9 23 12 NE 1017,4 51 51 0,0
21.04.2019 11:00:00 16,8 7,7 15,0 12,6 10,2 14 7 27 14 ENE 1018,0 20 43 0,0
21.04.2019 10:00:00 13,6 7,1 11,3 12,7 10,2 16 9 22 12 NE 1018,5 20 16 0,0
21.04.2019 09:00:00 11,1 7,0 9,2 12,8 10,2 6 3 19 10 ENE 1018,7 19 12 0,0
21.04.2019 08:00:00 10,3 6,4 6,6 12,9 10,2 7 4 12 6 NNE 1018,8 18 33 0,0
21.04.2019 07:00:00 8,6 5,5 6,2 13,0 10,2 11 6 13 7 NNE 1019,1 19 0 0,0
21.04.2019 06:00:00 8,5 5,6 4,9 13,2 10,2 6 4 10 6 NNE 1019,4 19 0 0,0
21.04.2019 05:00:00 8,0 5,1 5,1 13,3 10,1 5 3 13 7 NNE 1019,8 19 0 0,0
21.04.2019 04:00:00 9,7 5,5 5,6 13,4 10,1 7 4 15 8 NNE 1020,2 24 0 0,0
21.04.2019 03:00:00 10,2 5,4 6,1 13,5 10,1 6 3 13 7 NNE 1020,6 29 0 0,0
21.04.2019 02:00:00 10,9 5,4 4,5 13,6 10,1 12 6 15 8 NNE 1021,3 47 0 0,0
21.04.2019 01:00:00 10,2 5,6 4,6 13,6 10,1 9 5 11 6 N 1021,8 53 0 0,0
21.04.2019 00:00:00 11,0 5,5 5,5 13,7 10,1 7 4 10 6 NW 1022,2 56 0 0,0
20.04.2019 23:00:00 13,0 5,9 6,4 13,7 10,1 7 4 12 6 NNW 1022,4 60 0 0,0
20.04.2019 22:00:00 15,2 5,9 7,6 13,6 10,1 6 4 10 6 NNE 1022,3 60 0 0,0
20.04.2019 21:00:00 17,5 5,7 13,2 13,5 10,1 9 5 16 9 NE 1022,1 60 26 0,0
20.04.2019 20:00:00 21,4 5,7 19,2 13,4 10,1 15 8 27 15 ENE 1021,7 60 60 0,0
20.04.2019 19:00:00 23,5 3,9 23,0 13,2 10,1 23 12 36 19 ENE 1021,8 56 60 0,0
20.04.2019 18:00:00 24,3 3,0 25,3 13,0 10,1 29 16 40 21 ENE 1022,0 51 60 0,0
20.04.2019 17:00:00 24,8 2,8 28,3 12,8 10,1 25 14 46 25 ENE 1022,2 36 60 0,0
20.04.2019 16:00:00 24,8 4,0 29,1 12,6 10,1 33 18 50 27 NE 1022,8 35 60 0,0
20.04.2019 15:00:00 24,7 6,4 29,3 12,5 10,0 32 18 50 27 ENE 1023,4 42 60 0,0
20.04.2019 14:00:00 23,8 6,1 28,2 12,4 10,0 26 14 41 22 ENE 1023,8 44 60 0,0
20.04.2019 13:00:00 22,5 9,6 25,2 12,4 10,0 22 12 31 17 NE 1024,7 60 60 0,0
20.04.2019 12:00:00 21,5 9,1 23,1 12,4 10,0 25 13 32 17 NE 1025,1 30 60 0,0
20.04.2019 11:00:00 20,0 9,8 19,9 12,4 10,0 23 12 32 18 NE 1025,4 24 60 0,0
20.04.2019 10:00:00 18,0 10,1 15,3 12,5 10,0 19 11 26 14 NE 1025,6 37 60 0,0
20.04.2019 09:00:00 14,4 9,6 8,8 12,6 10,0 14 8 22 12 NE 1025,9 31 40 0,0
20.04.2019 08:00:00 10,2 8,0 8,3 12,7 10,0 7 4 19 10 N 1025,4 37 0 0,0
20.04.2019 07:00:00 12,1 8,2 8,9 12,8 10,0 11 6 23 12 NNE 1024,9 45 0 0,0
20.04.2019 06:00:00 12,9 7,3 8,5 12,8 10,0 8 4 25 14 ESE 1024,2 60 0 0,0
20.04.2019 05:00:00 10,3 8,1 8,9 12,9 10,0 12 7 28 15 ENE 1024,8 20 0 0,0
20.04.2019 04:00:00 11,8 8,1 9,2 13,0 10,0 18 10 27 15 NE 1024,8 26 0 0,0
20.04.2019 03:00:00 11,3 8,7 8,8 13,1 10,0 13 7 17 9 N 1024,8 15 0 0,0
20.04.2019 02:00:00 12,2 8,3 8,8 13,2 10,0 8 4 14 8 N 1024,8 18 0 0,0
20.04.2019 01:00:00 13,3 8,1 10,4 13,2 10,0 3 2 17 9 NNE 1024,9 20 0 0,0
20.04.2019 00:00:00 14,5 8,4 7,0 13,2 10,0 6 4 9 5 N 1025,0 24 0 0,0
19.04.2019 23:00:00 14,1 8,1 7,2 13,2 9,9 3 2 5 3 N 1024,9 27 0 0,0
19.04.2019 22:00:00 15,9 9,1 8,2 13,1 10,0 2 1 10 5 N 1024,5 34 0 0,0
19.04.2019 21:00:00 17,8 9,9 10,6 13,0 10,0 5 3 6 4 N 1024,1 20 16 0,0
19.04.2019 20:00:00 21,8 9,3 17,4 12,8 10,0 5 3 11 6 N 1023,5 60 56 0,0
19.04.2019 19:00:00 23,2 8,5 23,4 12,5 9,9 8 4 18 10 N 1023,4 60 60 0,0
19.04.2019 18:00:00 23,8 7,4 22,3 12,3 9,9 13 7 23 12 NW 1023,2 48 33 0,0
19.04.2019 17:00:00 23,7 9,3 28,8 12,0 9,9 8 5 21 12 NW 1023,1 57 56 0,0
19.04.2019 16:00:00 23,3 9,3 32,0 11,8 9,9 7 4 21 12 N 1023,2 39 60 0,0
19.04.2019 15:00:00 22,8 9,6 30,6 11,7 9,9 8 4 28 15 N 1023,5 20 60 0,0
19.04.2019 14:00:00 21,7 9,6 28,4 11,6 9,9 9 5 19 11 NNE 1023,5 20 60 0,0
19.04.2019 13:00:00 20,5 11,1 24,0 11,5 9,9 6 4 15 8 NNW 1023,8 16 60 0,0
19.04.2019 12:00:00 18,4 10,7 20,7 11,5 9,9 7 4 15 8 NNW 1024,0 18 60 0,0
19.04.2019 11:00:00 17,4 10,0 17,8 11,6 9,9 4 2 22 12 WSW 1023,6 18 60 0,0
19.04.2019 10:00:00 14,5 9,1 13,3 11,7 9,9 2 1 8 5 NNE 1023,5 19 60 0,0
19.04.2019 09:00:00 11,6 7,7 7,0 11,8 9,9 7 4 10 6 NE 1023,1 19 60 0,0
19.04.2019 08:00:00 8,7 7,0 2,5 11,9 9,9 8 4 10 5 N 1022,7 15 30 0,0
19.04.2019 07:00:00 6,2 4,7 2,5 11,9 9,9 8 4 9 5 N 1022,3 17 0 0,0
19.04.2019 06:00:00 7,4 5,4 4,1 12,0 9,9 5 3 10 6 NE 1021,5 19 0 0,0
19.04.2019 05:00:00 8,2 6,0 5,8 12,1 9,9 6 4 15 8 NE 1021,2 18 0 0,0
19.04.2019 04:00:00 9,7 7,0 6,5 12,2 9,9 8 4 13 7 NE 1020,6 20 0 0,0
19.04.2019 03:00:00 10,1 7,2 6,7 12,2 9,9 7 4 11 6 NE 1020,4 20 0 0,0
19.04.2019 02:00:00 10,0 7,1 8,5 12,3 9,9 10 5 14 8 NE 1020,3 20 0 0,0
19.04.2019 01:00:00 11,1 7,8 9,2 12,3 9,9 12 6 15 8 NE 1020,2 20 0 0,0
19.04.2019 00:00:00 11,7 8,2 9,8 12,3 9,9 10 6 13 7 ENE 1019,9 20 0 0,0
18.04.2019 23:00:00 12,2 8,5 9,8 12,3 9,9 12 6 16 9 NE 1019,6 28 0 0,0
18.04.2019 22:00:00 13,5 9,2 11,0 12,2 9,9 10 5 14 8 ENE 1019,1 32 0 0,0
18.04.2019 21:00:00 15,5 9,4 12,6 12,2 9,9 9 5 16 9 NE 1018,6 54 0 0,0
18.04.2019 20:00:00 18,2 9,0 16,2 12,0 9,9 14 8 27 15 ENE 1017,9 60 0 0,0
18.04.2019 19:00:00 20,9 8,8 20,1 11,8 9,9 19 10 33 18 ENE 1017,4 60 32 0,0
18.04.2019 18:00:00 21,4 8,0 21,7 11,6 9,9 24 13 37 20 NE 1017,2 60 51 0,0
18.04.2019 17:00:00 21,9 8,0 22,2 11,4 9,9 27 14 39 21 ENE 1016,8 60 37 0,0
18.04.2019 16:00:00 22,3 7,3 26,4 11,2 9,8 29 16 39 21 NE 1016,7 51 60 0,0
18.04.2019 15:00:00 21,5 10,0 25,8 11,1 9,9 26 14 39 21 NE 1016,6 52 60 0,0
18.04.2019 14:00:00 20,5 9,1 25,6 11,0 9,9 27 15 36 19 NE 1016,7 45 60 0,0
18.04.2019 13:00:00 20,6 6,5 25,0 10,9 9,9 21 12 34 18 E 1017,1 44 60 0,0
18.04.2019 12:00:00 18,5 11,6 21,9 10,9 9,9 16 9 27 15 NE 1017,5 60 60 0,0
18.04.2019 11:00:00 16,4 10,7 16,9 10,9 9,9 11 6 23 12 ENE 1017,6 19 60 0,0
18.04.2019 10:00:00 13,6 9,8 13,0 11,0 9,9 18 10 23 12 NE 1017,9 40 60 0,0
18.04.2019 09:00:00 11,0 9,1 8,2 11,0 9,9 10 5 15 8 ENE 1017,8 20 44 0,0
18.04.2019 08:00:00 8,4 7,5 5,5 11,1 9,9 9 5 14 8 ENE 1017,5 18 38 0,0
18.04.2019 07:00:00 7,0 6,1 5,5 11,2 9,9 7 4 12 6 ENE 1017,4 13 0 0,0
18.04.2019 06:00:00 7,6 6,7 6,1 11,2 9,9 9 5 16 9 NE 1017,1 13 0 0,0
18.04.2019 05:00:00 8,2 7,1 6,9 11,3 9,9 13 7 18 10 ENE 1016,9 12 0 0,0
18.04.2019 04:00:00 8,8 7,7 7,6 11,3 9,9 12 7 20 11 NE 1017,1 12 0 0,0
18.04.2019 03:00:00 9,4 8,2 8,2 11,4 9,8 14 8 19 11 ENE 1017,0 13 0 0,0
18.04.2019 02:00:00 9,9 8,5 8,4 11,4 9,9 12 6 17 9 ENE 1017,4 16 0 0,0
18.04.2019 01:00:00 10,8 8,6 9,1 11,4 9,9 15 8 20 11 ENE 1017,4 19 0 0,0
18.04.2019 00:00:00 11,0 8,7 9,8 11,4 9,9 14 8 18 10 ENE 1017,2 20 0 0,0
17.04.2019 23:00:00 13,3 8,8 11,8 11,4 9,9 16 9 29 15 ENE 1017,1 36 0 0,0
17.04.2019 22:00:00 13,6 8,4 10,4 11,3 9,9 19 11 27 15 ENE 1016,6 53 0 0,0
17.04.2019 21:00:00 12,7 8,0 11,1 11,1 9,9 16 9 26 14 ENE 1016,7 60 0 0,0
17.04.2019 20:00:00 16,4 7,1 14,6 10,9 9,9 16 9 29 16 E 1016,5 60 0 0,0
17.04.2019 19:00:00 17,5 6,4 16,6 10,7 9,9 20 11 33 18 E 1016,3 60 20 0,0
17.04.2019 18:00:00 18,1 3,9 18,2 10,5 9,8 21 11 34 19 E 1016,3 57 53 0,0
17.04.2019 17:00:00 18,6 5,1 21,5 10,3 9,9 20 11 37 20 E 1016,4 60 60 0,0
17.04.2019 16:00:00 18,1 6,0 23,8 10,0 9,8 18 10 31 17 E 1017,1 60 60 0,0
17.04.2019 15:00:00 17,6 5,2 23,8 9,9 9,8 17 9 29 16 E 1017,9 60 60 0,0
17.04.2019 14:00:00 17,2 6,7 20,2 9,8 9,8 18 10 29 16 E 1018,4 60 51 0,0
17.04.2019 13:00:00 16,6 7,2 19,8 9,7 9,8 16 9 26 14 E 1018,8 60 58 0,0
17.04.2019 12:00:00 15,7 7,7 17,4 9,7 9,8 11 6 22 12 E 1019,2 60 54 0,0
17.04.2019 11:00:00 14,5 7,8 15,9 9,7 9,8 14 8 21 11 ESE 1019,5 46 60 0,0
17.04.2019 10:00:00 11,7 9,1 10,4 9,8 9,9 8 4 12 6 E 1019,4 19 60 0,0
17.04.2019 09:00:00 7,4 7,4 3,6 9,9 9,9 4 2 8 4 ENE 1019,9 10 60 0,0
17.04.2019 08:00:00 3,0 3,0 0,3 10,0 9,8 3 2 6 3 NE 1020,0 0,8 36 0,0
17.04.2019 07:00:00 1,6 1,6 -0,4 10,1 9,8 3 1 4 2 NE 1020,0 0,1 0 0,0
17.04.2019 06:00:00 2,2 2,2 -0,9 10,2 9,8 3 2 7 4 S 1019,8 0,2 0 0,0
17.04.2019 05:00:00 1,9 1,9 -0,1 10,3 9,8 3 1 7 4 SSE 1019,6 0,1 0 0,0
17.04.2019 04:00:00 3,5 3,5 -0,8 10,4 9,9 2 1 4 2 SE 1019,6 0,1 0 0,0
17.04.2019 03:00:00 4,7 4,7 -0,6 10,4 9,8 3 2 8 5 SE 1019,8 0,2 0 0,0

tt = Température de l'air
td = dewpoint
tt 5cm = Température de l'air 5cm
tt -20cm = Température de l'air -20cm
tt -100cm = Température de l'air -100cm
ff = Vitesse du vent
fx = gusts
dd = Direction du vent
ppp = reduced air pressure
vv = visibility
sd = Ensoleillement
rr = Quantités de précipitations

stations d'obs. à proximité